Stations météo

réclame
Mon MeteoGroup
Katterjakk A, Suède (2019): Température de l'air & dewpoint: 12.01.2019 12:00:00 - 18.01.2019 12:00:00 (CET)Katterjakk A, Suède (2019): Vitesse du vent & gusts: 12.01.2019 12:00:00 - 18.01.2019 12:00:00 (CET)Katterjakk A, Suède (2019): Direction du vent: 12.01.2019 12:00:00 - 18.01.2019 12:00:00 (CET)Katterjakk A, Suède (2019): reduced air pressure: 12.01.2019 12:00:00 - 18.01.2019 12:00:00 (CET)Katterjakk A, Suède (2019): visibility: 12.01.2019 12:00:00 - 18.01.2019 12:00:00 (CET)Katterjakk A, Suède (2019): Quantités de précipitations: 12.01.2019 12:00:00 - 18.01.2019 12:00:00 (CET)
Date & Time tt [°C] td [°C] ff [km/h] ff [knt] fx [km/h] fx [knt] dd ppp [hPa] vv [km] rr [mm]
18.01.2019 12:00:00 -14,4 -16,2 5 3 13 7 NNE 995,2 10 0,0
18.01.2019 11:00:00 -14,5 -16,3 2 1 13 7 NNE 994,8 4,8 0,0
18.01.2019 10:00:00 -14,5 -16,5 4 2 8 4 N 994,3 11 0,0
18.01.2019 09:00:00 -14,8 -16,6 2 1 8 4 W 993,7 1,7 0,1
18.01.2019 08:00:00 -14,6 -16,4 2 1 6 4 N 993,2 1,7 0,2
18.01.2019 07:00:00 -14,7 -16,5 4 2 6 4 NNE 992,7 4,4 0,1
18.01.2019 06:00:00 -14,4 -16,2 2 1 10 6 NW 992,5 2,4 0,0
18.01.2019 05:00:00 -14,6 -16,4 0 0 10 6 N 992,3 3,4 0,0
18.01.2019 04:00:00 - - - - 8 4 - - - -
18.01.2019 03:00:00 -15,0 -16,8 0 0 8 4 N 991,9 2,6 0,1
18.01.2019 02:00:00 -15,1 -16,9 0 0 7 4 N 991,7 4,0 0,0
18.01.2019 01:00:00 -14,9 -16,7 2 1 6 4 WSW 991,4 2,4 0,0
18.01.2019 00:00:00 -16,0 -17,9 4 2 7 4 NNW 991,4 3,9 0,1
17.01.2019 23:00:00 -16,5 -18,4 4 2 7 4 WSW 991,4 2,0 0,0
17.01.2019 22:00:00 -15,8 -17,9 2 1 4 2 WNW 991,0 2,9 0,1
17.01.2019 21:00:00 -15,5 -17,3 0 0 7 4 N 990,7 1,7 0,1
17.01.2019 20:00:00 -16,3 -18,2 2 1 7 4 NNE 990,5 1,4 0,0
17.01.2019 19:00:00 -15,9 -17,8 0 0 5 3 N 990,1 1,6 0,0
17.01.2019 18:00:00 -16,4 -18,3 0 0 9 5 N 990,1 7 0,0
17.01.2019 17:00:00 -17,7 -19,7 4 2 13 7 S 990,2 48 0,0
17.01.2019 16:00:00 -17,3 -19,6 4 2 13 7 W 990,1 46 0,0
17.01.2019 15:00:00 -18,0 -20,2 0 0 12 6 N 990,0 50 0,0
17.01.2019 14:00:00 -17,3 -19,1 5 3 12 6 S 990,0 50 0,0
17.01.2019 13:00:00 -17,3 -19,1 4 2 11 6 SSE 990,0 50 0,0
17.01.2019 12:00:00 -18,0 -20,3 7 4 18 10 S 990,3 50 0,0
17.01.2019 11:00:00 -17,1 -19,6 8 4 19 10 S 990,2 17 0,0
17.01.2019 10:00:00 -14,9 -17,7 10 5 19 10 S 989,7 32 0,0
17.01.2019 09:00:00 -14,2 -16,3 3 2 10 5 N 989,6 7 0,0
17.01.2019 08:00:00 -14,3 -16,3 0 0 8 5 N 989,5 3,4 0,0
17.01.2019 07:00:00 -14,4 -16,4 4 2 20 11 S 989,4 6 -
17.01.2019 06:00:00 -13,8 -16,2 4 2 20 11 S 989,5 13 -
17.01.2019 05:00:00 -14,3 -17,3 8 4 11 6 S 989,8 44 0,0
17.01.2019 04:00:00 -15,0 -17,7 5 3 8 4 SW 990,0 50 0,0
17.01.2019 03:00:00 -16,1 -18,2 5 3 8 4 WSW 990,2 50 0,0
17.01.2019 02:00:00 -16,7 -19,3 5 3 11 6 SW 990,4 50 0,0
17.01.2019 01:00:00 -14,8 -18,1 6 3 11 6 SSW 990,5 50 0,0
17.01.2019 00:00:00 -15,9 -18,3 4 2 11 6 SSW 990,8 50 0,0
16.01.2019 23:00:00 -16,7 -19,2 4 2 14 8 SE 991,0 50 0,0
16.01.2019 22:00:00 -15,6 -19,3 6 4 15 8 S 991,1 50 0,0
16.01.2019 21:00:00 -18,1 -20,3 5 3 15 8 SSW 991,6 45 0,0
16.01.2019 20:00:00 -15,7 -18,4 6 4 13 7 S 991,4 50 0,0
16.01.2019 19:00:00 -18,3 -21,2 9 5 14 8 S 991,9 50 0,0
16.01.2019 18:00:00 -17,7 -20,2 8 5 14 8 S 992,0 50 -
16.01.2019 17:00:00 -16,9 -18,7 10 5 13 7 SW 992,0 10 0,0
16.01.2019 16:00:00 -17,5 -19,5 6 4 11 6 S 992,4 6 0,0
16.01.2019 15:00:00 -15,8 -17,7 6 3 11 6 S 992,3 50 0,0
16.01.2019 14:00:00 -15,6 -18,0 6 4 14 7 SSW 992,5 50 0,0
16.01.2019 13:00:00 -14,1 -15,8 4 2 14 8 SSW 992,5 30 0,0
16.01.2019 12:00:00 -14,5 -16,2 7 4 13 7 SSW 992,9 50 0,0
16.01.2019 11:00:00 -13,0 -15,4 5 3 11 6 SSW 992,9 50 0,0
16.01.2019 10:00:00 -13,4 -15,4 5 3 9 5 SSW 993,0 15 0,0
16.01.2019 09:00:00 -12,2 -13,9 3 2 9 5 S 992,6 5 0,0
16.01.2019 08:00:00 -10,5 -12,1 3 1 18 10 N 992,4 2,1 0,1
16.01.2019 07:00:00 -9,3 -11,1 5 3 22 12 NW 992,2 3,2 0,0
16.01.2019 06:00:00 -9,7 -12,2 16 9 22 12 S 992,3 6 0,0
16.01.2019 05:00:00 -9,4 -12,1 13 7 19 10 S 992,4 5 0,0
16.01.2019 04:00:00 -8,6 -10,7 11 6 18 10 SSW 992,5 3,4 0,0
16.01.2019 03:00:00 -8,8 -11,2 16 8 18 10 SSW 992,6 3,3 0,0
16.01.2019 02:00:00 -7,8 -9,9 9 5 15 8 SSW 992,6 7 0,0
16.01.2019 01:00:00 -7,9 -10,1 5 3 16 9 WSW 992,7 15 0,0
16.01.2019 00:00:00 -7,7 -9,5 14 8 20 11 S 992,7 8 0,0
15.01.2019 23:00:00 -7,7 -9,3 14 7 20 11 S 992,5 2,7 0,0
15.01.2019 22:00:00 -7,8 -10,0 9 5 18 10 SW 992,5 4,2 0,0
15.01.2019 21:00:00 -8,5 -10,6 12 7 21 11 SSW 992,5 7 0,0
15.01.2019 20:00:00 -8,3 -10,4 16 9 23 12 S 992,3 4,8 0,0
15.01.2019 19:00:00 -8,9 -11,4 19 10 23 12 S 992,2 9 0,0
15.01.2019 18:00:00 -9,7 -13,3 9 5 19 10 WSW 992,2 50 0,0
15.01.2019 17:00:00 -10,2 -13,9 9 5 19 10 WSW 992,3 50 0,0
15.01.2019 16:00:00 -9,5 -13,3 10 6 19 11 WSW 992,1 50 0,0
15.01.2019 15:00:00 -9,3 -12,9 6 3 21 11 WSW 991,9 50 0,0
15.01.2019 14:00:00 -9,8 -13,7 14 8 21 11 SSW 991,7 50 0,0
15.01.2019 13:00:00 -9,8 -13,6 8 4 16 9 WSW 991,5 50 0,0
15.01.2019 12:00:00 -7,9 -12,1 6 4 11 6 WSW 991,4 50 0,0
15.01.2019 11:00:00 -8,6 -12,4 7 4 12 6 SW 991,5 50 0,0
15.01.2019 10:00:00 -7,2 -10,5 2 1 15 8 NNE 991,3 49 0,0
15.01.2019 09:00:00 -7,4 -11,1 9 5 18 10 SSW 991,3 49 0,0
15.01.2019 08:00:00 -6,8 -10,3 0 0 19 10 N 991,0 50 0,0
15.01.2019 07:00:00 -7,1 -10,8 14 8 19 10 W 990,9 50 0,0
15.01.2019 06:00:00 -7,0 -10,2 8 4 19 10 WNW 990,9 50 0,0
15.01.2019 05:00:00 -8,4 -10,9 7 4 22 12 W 991,2 50 0,0
15.01.2019 04:00:00 -8,2 -10,3 4 2 22 12 NE 991,2 50 0,0
15.01.2019 03:00:00 -6,9 -8,7 10 5 22 12 W 990,4 46 0,0
15.01.2019 02:00:00 -10,9 -12,8 4 2 10 5 NNE 990,9 18 0,0
15.01.2019 01:00:00 -10,5 -12,2 4 2 10 5 N 990,5 50 0,0
15.01.2019 00:00:00 -11,6 -13,0 4 2 10 5 N 990,5 50 0,0
14.01.2019 23:00:00 -10,8 -12,0 6 3 18 10 SW 990,1 0,5 0,1
14.01.2019 22:00:00 -12,6 -15,8 4 2 18 10 ENE 989,6 11 -
14.01.2019 21:00:00 -11,2 -15,9 6 3 23 13 S 989,2 50 0,0
14.01.2019 20:00:00 -11,2 -15,9 11 6 23 13 SSW 988,9 50 0,0
14.01.2019 19:00:00 -13,9 -18,4 5 3 24 13 WSW 988,6 50 0,0
14.01.2019 18:00:00 -13,5 -17,5 5 3 24 13 SSW 987,8 50 0,0
14.01.2019 17:00:00 -12,1 -16,3 11 6 22 12 SW 987,2 50 0,0
14.01.2019 16:00:00 -14,8 -18,4 4 2 19 11 SSW 987,2 50 0,0
14.01.2019 15:00:00 -13,0 -16,5 10 5 19 11 SSW 986,3 50 0,0
14.01.2019 14:00:00 -12,2 -16,4 10 5 15 8 W 985,5 50 0,0
14.01.2019 13:00:00 -11,1 -15,2 6 3 24 13 SSW 984,9 50 0,0
14.01.2019 12:00:00 -12,2 -16,2 12 7 24 13 W 984,5 50 0,0
14.01.2019 11:00:00 -11,2 -14,9 9 5 18 10 WSW 983,9 50 0,0
14.01.2019 10:00:00 -12,5 -16,0 8 4 18 10 WSW 983,2 50 0,0
14.01.2019 09:00:00 -14,0 -16,5 5 3 16 9 WSW 982,6 50 0,0
14.01.2019 08:00:00 -13,9 -17,1 6 4 13 7 SSW 981,7 50 0,0
14.01.2019 07:00:00 -15,9 -18,6 5 3 10 6 SW 981,1 50 0,0
14.01.2019 06:00:00 -14,1 -16,4 4 2 14 8 S 980,3 26 0,0
14.01.2019 05:00:00 -14,7 -16,8 8 4 18 10 SSW 979,7 50 0,0
14.01.2019 04:00:00 -14,7 -16,4 4 2 19 10 SSW 979,1 50 0,0
14.01.2019 03:00:00 -14,1 -16,2 8 4 19 10 SSW 978,4 50 0,0
14.01.2019 02:00:00 -13,6 -16,5 9 5 16 8 WSW 977,7 50 0,0
14.01.2019 01:00:00 -13,8 -16,2 7 4 14 8 S 977,1 50 0,0
14.01.2019 00:00:00 -11,3 -14,2 6 3 13 7 SW 976,5 50 0,0
13.01.2019 23:00:00 -11,3 -13,2 6 3 9 5 SSW 976,2 24 0,0
13.01.2019 22:00:00 -10,1 -12,0 5 3 11 6 SW 975,8 3,8 0,0
13.01.2019 21:00:00 -9,5 -11,5 5 3 11 6 W 975,4 3,1 0,0
13.01.2019 20:00:00 -10,7 -12,4 4 2 22 12 SSW 975,0 47 0,0
13.01.2019 19:00:00 -9,8 -13,1 10 5 22 12 SSW 974,3 50 -
13.01.2019 18:00:00 -10,9 -12,9 3 1 15 8 WSW 974,4 50 0,0
13.01.2019 17:00:00 -11,0 -14,6 4 2 16 9 SSW 974,5 50 0,0
13.01.2019 16:00:00 -11,5 -14,3 5 3 16 9 SSW 974,8 50 0,0
13.01.2019 15:00:00 -11,1 -14,7 10 6 16 9 S 974,7 50 0,0
13.01.2019 14:00:00 -10,0 -12,8 6 3 27 15 S 974,9 50 0,0
13.01.2019 13:00:00 -10,1 -13,7 17 9 27 15 SSW 975,2 50 0,0
13.01.2019 12:00:00 -9,9 -13,5 7 4 22 12 WSW 975,7 50 0,0
13.01.2019 11:00:00 -10,4 -13,2 6 4 22 12 SSW 976,1 50 0,0
13.01.2019 10:00:00 -8,6 -11,7 4 2 19 10 SW 976,5 50 0,0
13.01.2019 09:00:00 -7,9 -11,9 3 2 21 11 SSW 977,1 50 0,0
13.01.2019 08:00:00 -8,0 -11,6 12 7 21 11 WSW 977,6 50 0,0
13.01.2019 07:00:00 -7,3 -10,3 9 5 24 13 W 978,2 35 0,0
13.01.2019 06:00:00 -6,8 -8,6 10 5 24 13 S 979,1 3,7 0,0
13.01.2019 05:00:00 - - - - 24 13 - - - -
13.01.2019 04:00:00 -6,3 -8,3 19 10 25 14 SSW 980,9 1,8 0,0
13.01.2019 03:00:00 -6,1 -9,6 20 11 25 14 SW 981,9 7 0,0
13.01.2019 02:00:00 -6,2 -8,6 14 8 24 13 SSW 982,9 8 0,0
13.01.2019 01:00:00 -5,9 -7,7 13 7 24 13 WSW 984,0 8 0,0
13.01.2019 00:00:00 -5,8 -7,3 16 9 23 13 WSW 984,8 1,3 0,1
12.01.2019 23:00:00 -5,9 -7,9 16 9 32 17 WSW 985,7 8 0,0
12.01.2019 22:00:00 -5,8 -7,8 20 11 32 17 W 986,7 3,6 0,2
12.01.2019 21:00:00 -5,5 -6,7 16 9 29 16 W 987,6 2,4 0,2
12.01.2019 20:00:00 -5,5 -7,5 18 10 40 22 W 988,2 6 0,1
12.01.2019 19:00:00 -5,8 -8,1 25 13 41 22 W 988,6 15 0,0
12.01.2019 18:00:00 -5,6 -7,6 30 16 42 23 W 989,3 3,4 0,0
12.01.2019 17:00:00 -5,5 -7,5 28 15 42 23 W 990,0 6 0,0
12.01.2019 16:00:00 -5,6 -7,6 29 15 48 26 W 990,4 25 0,0
12.01.2019 15:00:00 -5,4 -6,5 27 15 48 26 W 990,7 4,5 0,0
12.01.2019 14:00:00 -5,5 -6,6 36 19 48 26 W 990,4 0,4 0,2
12.01.2019 13:00:00 -5,5 -6,9 26 14 48 26 WNW 990,6 1,4 0,0
12.01.2019 12:00:00 -5,4 -6,6 36 19 50 27 W 990,4 1,0 0,1

tt = Température de l'air
td = dewpoint
ff = Vitesse du vent
fx = gusts
dd = Direction du vent
ppp = reduced air pressure
vv = visibility
rr = Quantités de précipitations

stations d'obs. à proximité